Weather History for Rockwall, TX

Change the Weather History Date:

Tuesday, March 5, 2013

  Actual Average (KDFW) Record (KDFW)
Temperature  
Mean Temperature 52 °F 55 °F  
Max Temperature 63 °F 65 °F 96 °F (1991)
Min Temperature 40 °F 44 °F 20 °F (1989)
Degree Days  
Heating Degree Days 14 11  
Month to date heating degree days 58  
Since 1 July heating degree days 1990  
Cooling Degree Days 0 1  
Month to date cooling degree days 3  
Year to date cooling degree days 10  
Growing Degree Days 2 (Base 50)    
Moisture  
Dew Point 26 °F    
Average Humidity 42    
Maximum Humidity 68    
Minimum Humidity 22    
Precipitation  
Precipitation 0.00 in 0.12 in 1.60 in (1933)
Month to date precipitation 0.55  
Year to date precipitation 5.34  
Snow  
Snow 0.00 in 0.00 in 1.70 in (1954)
Month to date snowfall 0.0  
Since 1 July snowfall 1.0  
Snow Depth -    
Sea Level Pressure  
Sea Level Pressure 30.22 in    
Wind  
Wind Speed 17 mph (North)    
Max Wind Speed 26 mph    
Max Gust Speed 39 mph    
Visibility 10 miles    
Events      
T = Trace of Precipitation, MM = Missing Value Source: NWS Daily Summary

Daily Weather History Graph

Daily Weather History Graph

Search for Another Location

Airport:

Trip Planner

Search our weather history database for the weather conditions in past years. The results will help you decide how hot, cold, wet, or windy it might be!

Date:

Astronomy

Mar. 05, 2013 Rise Set
Actual Time 6:48 AM CST 6:26 PM CST
Civil Twilight 6:23 AM CST 6:51 PM CST
Nautical Twilight 5:55 AM CST 7:19 PM CST
Astronomical Twilight 5:26 AM CST 7:48 PM CST
Moon 1:48 AM CST (3/5) 12:20 PM CST (3/5)
Length of Visible Light 12h 27m
Length of Day
11h 37m
Last Quarter, 40% of the Moon is Illuminated
Mar 5
Last Quarter
Mar 11
New
Mar 19
First Quarter
Mar 27
Full
Apr 2
Last Quarter

Hourly Weather History & Observations

Time (CST) Temp. Windchill Dew Point Humidity Pressure Visibility Wind Dir Wind Speed Gust Speed Precip Events Conditions
12:15 AM 63.0 °F - 44.8 °F 51% 29.77 in 10.0 mi NNE 16.1 mph 23.0 mph N/A   Clear
12:35 AM 61.2 °F - 43.7 °F 53% 29.79 in 10.0 mi North 21.9 mph 27.6 mph N/A   Clear
12:55 AM 56.3 °F - 43.2 °F 61% 29.82 in 10.0 mi North 19.6 mph 28.8 mph N/A   Clear
1:15 AM 54.9 °F - 41.9 °F 62% 29.85 in 10.0 mi North 21.9 mph 31.1 mph N/A   Clear
1:55 AM 51.1 °F - 40.5 °F 67% 29.93 in 10.0 mi NNW 21.9 mph 29.9 mph N/A   Clear
2:15 AM 49.6 °F - 39.6 °F 68% 29.94 in 10.0 mi North 26.5 mph 39.1 mph N/A   Clear
2:35 AM 49.1 °F - 38.7 °F 67% 29.98 in 10.0 mi North 18.4 mph 33.4 mph N/A   Scattered Clouds
2:55 AM 48.6 °F - 37.6 °F 66% 29.97 in 10.0 mi North 23.0 mph 34.5 mph N/A   Scattered Clouds
3:15 AM 48.6 °F - 36.9 °F 64% 30.00 in 10.0 mi North 24.2 mph 32.2 mph N/A   Scattered Clouds
3:35 AM 48.9 °F - 35.2 °F 59% 30.07 in 10.0 mi North 20.7 mph 34.5 mph N/A   Clear
3:55 AM 48.7 °F - 33.8 °F 56% 30.05 in 10.0 mi North 19.6 mph 28.8 mph N/A   Clear
4:15 AM 48.7 °F - 33.6 °F 56% 30.07 in 10.0 mi North 17.3 mph 29.9 mph N/A   Clear
4:35 AM 48.4 °F - 33.8 °F 57% 30.09 in 10.0 mi North 17.3 mph 28.8 mph N/A   Clear
4:55 AM 48.2 °F - 33.4 °F 57% 30.11 in 10.0 mi North 24.2 mph 33.4 mph N/A   Clear
5:15 AM 46.9 °F - 34.0 °F 61% 30.12 in 10.0 mi North 15.0 mph 24.2 mph N/A   Clear
5:35 AM 46.6 °F - 34.7 °F 63% 30.13 in 10.0 mi North 17.3 mph 24.2 mph N/A   Clear
5:55 AM 46.0 °F 39.6 °F 34.7 °F 65% 30.14 in 10.0 mi North 15.0 mph - N/A   Clear
6:15 AM 45.9 °F 40.0 °F 34.0 °F 63% 30.16 in 10.0 mi North 12.7 mph 20.7 mph N/A   Clear
7:15 AM 44.6 °F 38.1 °F 30.9 °F 59% 30.20 in 10.0 mi North 13.8 mph 23.0 mph N/A   Clear
7:35 AM 44.6 °F 36.9 °F 31.1 °F 59% 30.21 in 10.0 mi North 18.4 mph 25.3 mph N/A   Clear
7:55 AM 45.3 °F 39.0 °F 31.1 °F 58% 30.23 in 10.0 mi North 13.8 mph 32.2 mph N/A   Clear
8:15 AM 45.7 °F 37.8 °F 29.8 °F 54% 30.24 in 10.0 mi North 20.7 mph 26.5 mph N/A   Clear
8:35 AM 46.2 °F 39.3 °F 29.1 °F 51% 30.25 in 10.0 mi North 17.3 mph 28.8 mph N/A   Clear
8:55 AM 47.3 °F - 28.0 °F 47% 30.26 in 10.0 mi North 21.9 mph 28.8 mph N/A   Clear
9:15 AM 47.8 °F - 26.6 °F 44% 30.27 in 10.0 mi North 16.1 mph 28.8 mph N/A   Clear
9:35 AM 48.7 °F - 25.5 °F 40% 30.27 in 10.0 mi North 23.0 mph 27.6 mph N/A   Clear
9:55 AM 49.3 °F - 24.1 °F 37% 30.28 in 10.0 mi NNW 20.7 mph 25.3 mph N/A   Clear
10:15 AM 49.8 °F - 23.9 °F 36% 30.29 in 10.0 mi NNW 18.4 mph 27.6 mph N/A   Clear
10:35 AM 49.5 °F - 23.0 °F 35% 30.30 in 10.0 mi North 15.0 mph 29.9 mph N/A   Clear
10:55 AM 50.4 °F - 21.7 °F 33% 30.31 in 10.0 mi NNW 23.0 mph 32.2 mph N/A   Clear
11:15 AM 50.9 °F - 20.3 °F 30% 30.31 in 10.0 mi North 20.7 mph 27.6 mph N/A   Clear
11:35 AM 51.3 °F - 20.8 °F 30% 30.32 in 10.0 mi NNW 20.7 mph 27.6 mph N/A   Clear
11:55 AM 52.3 °F - 20.5 °F 29% 30.31 in 10.0 mi NNW 16.1 mph 27.6 mph N/A   Clear
12:15 PM 52.2 °F - 20.3 °F 29% 30.32 in 10.0 mi North 16.1 mph 24.2 mph N/A   Clear
12:35 PM 52.7 °F - 18.9 °F 26% 30.31 in 10.0 mi North 18.4 mph 32.2 mph N/A   Clear
12:55 PM 53.2 °F - 20.7 °F 28% 30.31 in 10.0 mi NW 13.8 mph 24.2 mph N/A   Clear
1:15 PM 54.3 °F - 20.3 °F 26% 30.30 in 10.0 mi North 18.4 mph 26.5 mph N/A   Clear
1:35 PM 54.5 °F - 20.1 °F 26% 30.30 in 10.0 mi NNW 16.1 mph 25.3 mph N/A   Clear
1:55 PM 54.7 °F - 18.7 °F 24% 30.29 in 10.0 mi NNW 15.0 mph 26.5 mph N/A   Clear
2:15 PM 55.0 °F - 17.6 °F 23% 30.29 in 10.0 mi NNW 17.3 mph 25.3 mph N/A   Clear
2:35 PM 55.9 °F - 18.3 °F 23% 30.28 in 10.0 mi NNW 16.1 mph 24.2 mph N/A   Clear
2:55 PM 55.8 °F - 17.4 °F 22% 30.28 in 10.0 mi NNW 18.4 mph 27.6 mph N/A   Clear
3:15 PM 55.6 °F - 17.6 °F 23% 30.28 in 10.0 mi NNW 18.4 mph 27.6 mph N/A   Clear
3:35 PM 56.3 °F - 17.2 °F 22% 30.27 in 10.0 mi NNW 17.3 mph 26.5 mph N/A   Clear
3:55 PM 55.9 °F - 18.1 °F 23% 30.27 in 10.0 mi North 12.7 mph 18.4 mph N/A   Clear
4:15 PM 55.6 °F - 17.6 °F 23% 30.27 in 10.0 mi NNW 17.3 mph 21.9 mph N/A   Clear
4:35 PM 55.9 °F - 17.4 °F 22% 30.27 in 10.0 mi North 16.1 mph 20.7 mph N/A   Clear
4:55 PM 55.2 °F - 17.8 °F 23% 30.27 in 10.0 mi NNW 11.5 mph 20.7 mph N/A   Clear
5:15 PM 54.7 °F - 17.6 °F 23% 30.27 in 10.0 mi North 16.1 mph - N/A   Clear
5:35 PM 54.1 °F - 18.1 °F 24% 30.28 in 10.0 mi North 13.8 mph 21.9 mph N/A   Clear
5:55 PM 53.6 °F - 18.3 °F 25% 30.28 in 10.0 mi North 11.5 mph 19.6 mph N/A   Clear
6:15 PM 52.2 °F - 18.5 °F 27% 30.29 in 10.0 mi North 9.2 mph - N/A   Clear
6:35 PM 51.3 °F - 19.0 °F 28% 30.30 in 10.0 mi North 10.4 mph - N/A   Clear
6:55 PM 50.0 °F - 19.4 °F 30% 30.30 in 10.0 mi North 8.1 mph - N/A   Clear
7:15 PM 49.1 °F - 20.3 °F 32% 30.31 in 10.0 mi North 8.1 mph - N/A   Clear
7:35 PM 47.8 °F - 20.3 °F 34% 30.31 in 10.0 mi North 6.9 mph - N/A   Clear
7:55 PM 48.0 °F - 20.3 °F 33% 30.32 in 10.0 mi NNW 8.1 mph - N/A   Clear
8:15 PM 47.3 °F - 20.7 °F 35% 30.32 in 10.0 mi NNW 9.2 mph - N/A   Clear
8:35 PM 47.3 °F - 21.2 °F 36% 30.33 in 10.0 mi North 6.9 mph - N/A   Clear
8:55 PM 45.5 °F 41.8 °F 21.2 °F 38% 30.33 in 10.0 mi North 6.9 mph - N/A   Clear
9:15 PM 45.3 °F 41.1 °F 21.7 °F 39% 30.33 in 10.0 mi North 8.1 mph - N/A   Clear
9:35 PM 44.6 °F 41.4 °F 21.9 °F 41% 30.34 in 10.0 mi North 5.8 mph - N/A   Clear
9:55 PM 43.7 °F 41.1 °F 22.5 °F 43% 30.34 in 10.0 mi North 4.6 mph - N/A   Clear
10:15 PM 43.2 °F 39.7 °F 22.3 °F 44% 30.35 in 10.0 mi North 5.8 mph - N/A   Clear
10:35 PM 42.3 °F 39.4 °F 22.8 °F 46% 30.35 in 10.0 mi North 4.6 mph - N/A   Clear
10:55 PM 41.2 °F 39.2 °F 23.9 °F 50% 30.35 in 10.0 mi North 3.5 mph - N/A   Clear
11:15 PM 40.3 °F - 24.8 °F 54% 30.35 in 10.0 mi Calm Calm - N/A   Clear
11:35 PM 40.5 °F 38.4 °F 24.1 °F 52% 30.35 in 10.0 mi North 3.5 mph - N/A   Clear
11:55 PM 40.8 °F 36.9 °F 24.1 °F 51% 30.36 in 10.0 mi North 5.8 mph - N/A   Clear